Location: Middle Street
(51.7167°N, 0.0333°E)
Time: 19:56:38
(UTC+00:00)

Feng Yun 1-1 Rocket - Pass Details

Date: 20 January 2021
Orbit: 830 x 932 km, 99.2° (Epoch: 27 February)

Event Time Altitude Azimuth Distance (km) Brightness Sun altitude
Rises 17:52:24 0° 160° (SSE) 3,372 7.3 -12.7°
Reaches altitude 10° 17:54:43 10° 160° (SSE) 2,449 6.6 -13.1°
Maximum altitude 18:00:09 87° 73° (ENE) 859 4.2 -13.9°
Drops below altitude 10° 18:05:45 10° 344° (NNW) 2,521 6.7 -14.7°
Sets 18:08:10 0° 345° (NNW) 3,478 7.4 -15.1°
